| time (UTC) | temp C | wind direction | speed KPH | gust KPH | rain 1hr cm | rain 24hr cm | rain mn cm | humidity % | barometer mb |
| 20260504001551 | 17 | 219 | 3.2 | 8.0 | 0.00 | 0.00 | 0.00 | 24 | 1012.3 |
| 20260504000049 | 17 | 101 | 14.5 | 30.6 | 0.00 | 0.00 | 0.00 | 23 | 1012.4 |
| 20260503234549 | 17 | 122 | 14.5 | 22.5 | 0.00 | 0.00 | 0.00 | 24 | 1012.4 |
| 20260503233050 | 18 | 143 | 14.5 | 38.6 | 0.00 | 0.00 | 0.00 | 23 | 1012.0 |
| 20260503231545 | 18 | 115 | 9.7 | 22.5 | 0.00 | 0.00 | 0.00 | 20 | 1011.8 |
| 20260503230057 | 19 | 127 | 14.5 | 24.1 | 0.00 | 0.00 | 0.00 | 19 | 1011.8 |
| 20260503224548 | 19 | 113 | 12.9 | 19.3 | 0.00 | 0.00 | 0.00 | 19 | 1011.8 |
| 20260503223057 | 19 | 123 | 4.8 | 29.0 | 0.00 | 0.00 | 0.00 | 18 | 1012.1 |
| 20260503221554 | 20 | 128 | 6.4 | 25.7 | 0.00 | 0.00 | 0.00 | 18 | 1012.2 |
| 20260503220049 | 19 | 91 | 12.9 | 27.4 | 0.00 | 0.00 | 0.00 | 19 | 1012.2 |
| 20260503214548 | 20 | 135 | 12.9 | 29.0 | 0.00 | 0.00 | 0.00 | 17 | 1012.4 |
| 20260503213103 | 20 | 181 | 8.0 | 19.3 | 0.00 | 0.00 | 0.00 | 16 | 1012.5 |
| 20260503211551 | 20 | 108 | 4.8 | 14.5 | 0.00 | 0.00 | 0.00 | 15 | 1012.8 |
| 20260503210059 | 20 | 113 | 3.2 | 12.9 | 0.00 | 0.00 | 0.00 | 14 | 1013.0 |
| 20260503204554 | 21 | 228 | 3.2 | 11.3 | 0.00 | 0.00 | 0.00 | 14 | 1013.1 |
| 20260503203056 | 21 | 198 | 3.2 | 11.3 | 0.00 | 0.00 | 0.00 | 14 | 1013.3 |
| 20260503201547 | 20 | 202 | 4.8 | 9.7 | 0.00 | 0.00 | 0.00 | 14 | 1013.6 |
| 20260503200051 | 21 | 296 | 3.2 | 8.0 | 0.00 | 0.00 | 0.00 | 14 | 1013.8 |
| 20260503194551 | 21 | 325 | 3.2 | 8.0 | 0.00 | 0.00 | 0.00 | 15 | 1013.9 |
| 20260503193054 | 21 | 201 | 1.6 | 4.8 | 0.00 | 0.00 | 0.00 | 14 | 1014.1 |
| 20260503191601 | 21 | 175 | 1.6 | 4.8 | 0.00 | 0.00 | 0.00 | 14 | 1014.2 |
| 20260503190052 | 20 | 313 | 1.6 | 6.4 | 0.00 | 0.00 | 0.00 | 16 | 1014.5 |
| 20260503184557 | 20 | 322 | 3.2 | 6.4 | 0.00 | 0.00 | 0.00 | 17 | 1014.8 |
| 20260503183110 | 20 | 318 | 0.0 | 8.0 | 0.00 | 0.00 | 0.00 | 17 | 1015.0 |
| 20260503181555 | 21 | 299 | 1.6 | 8.0 | 0.00 | 0.00 | 0.00 | 17 | 1015.3 |
| 20260503180050 | 21 | 316 | 3.2 | 6.4 | 0.00 | 0.00 | 0.00 | 18 | 1015.5 |
| 20260503174551 | 20 | 249 | 3.2 | 8.0 | 0.00 | 0.00 | 0.00 | 21 | 1015.9 |
| 20260503173113 | 18 | 326 | 1.6 | 4.8 | 0.00 | 0.00 | 0.00 | 17 | 1016.3 |
| 20260503171552 | 18 | 0 | 3.2 | 6.4 | 0.00 | 0.00 | 0.00 | 18 | 1016.6 |
| 20260503081549 | 13 | 70 | 6.4 | 16.1 | 0.00 | 0.00 | 0.00 | 28 | 1017.0 |
| 20260503071548 | 12 | 81 | 3.2 | 6.4 | 0.00 | 0.00 | 0.00 | 26 | 1017.3 |
| 20260503054545 | 12 | 96 | 1.6 | 3.2 | 0.00 | 0.00 | 0.00 | 20 | 1017.4 |
| 20260503053050 | 12 | 81 | 1.6 | 4.8 | 0.00 | 0.00 | 0.00 | 19 | 1017.6 |
| 20260503051552 | 11 | 72 | 0.0 | 8.0 | 0.00 | 0.00 | 0.00 | 20 | 1017.5 |
| 20260503050050 | 11 | 86 | 3.2 | 8.0 | 0.00 | 0.00 | 0.00 | 21 | 1017.6 |
| 20260503044545 | 12 | 122 | 3.2 | 9.7 | 0.00 | 0.00 | 0.00 | 21 | 1017.6 |
| 20260503043049 | 12 | 101 | 3.2 | 6.4 | 0.00 | 0.00 | 0.00 | 21 | 1017.7 |
| 20260503041603 | 12 | 314 | 0.0 | 1.6 | 0.00 | 0.00 | 0.00 | 20 | 1017.6 |
| 20260503040057 | 12 | 312 | 0.0 | 3.2 | 0.00 | 0.00 | 0.00 | 20 | 1017.6 |
| 20260503034606 | 13 | 311 | 0.0 | 1.6 | 0.00 | 0.00 | 0.00 | 22 | 1017.6 |
| 20260503033052 | 14 | 0 | 0.0 | 3.2 | 0.00 | 0.00 | 0.00 | 25 | 1017.4 |
| 20260503031550 | 15 | 310 | 1.6 | 3.2 | 0.00 | 0.00 | 0.00 | 23 | 1017.4 |
| 20260503030054 | 15 | 311 | 1.6 | 4.8 | 0.00 | 0.00 | 0.00 | 22 | 1017.4 |
| 20260503024551 | 15 | 316 | 1.6 | 3.2 | 0.00 | 0.00 | 0.00 | 19 | 1017.4 |
| 20260503023047 | 14 | 269 | 0.0 | 1.6 | 0.00 | 0.00 | 0.00 | 15 | 1017.2 |
| 20260503021547 | 15 | 0 | 0.0 | 0.0 | 0.00 | 0.00 | 0.00 | 14 | 1017.1 |
| 20260503020049 | 15 | 0 | 0.0 | 1.6 | 0.00 | 0.00 | 0.00 | 13 | 1016.8 |
| 20260503014554 | 16 | 0 | 0.0 | 1.6 | 0.00 | 0.00 | 0.00 | 12 | 1016.7 |
| 20260503013048 | 17 | 0 | 0.0 | 3.2 | 0.00 | 0.00 | 0.00 | 11 | 1016.7 |
| 20260503011548 | 17 | 0 | 1.6 | 6.4 | 0.00 | 0.00 | 0.00 | 10 | 1016.6 |
| 20260503010144 | 18 | 315 | 1.6 | 4.8 | 0.00 | 0.00 | 0.00 | 10 | 1016.6 |
| 20260503004611 | 18 | 307 | 0.0 | 8.0 | 0.00 | 0.00 | 0.00 | 10 | 1016.5 |
| 20260503003050 | 18 | 255 | 1.6 | 9.7 | 0.00 | 0.00 | 0.00 | 9 | 1016.6 |